Temperature
10 10 10 10 10 10 10 10 10 10 9 9 8 8 8 7 7 6 5 5 4 3 2 2 1 1 0 -0 -1 -2 -3 -5 -6 -5 -5 -6 -6 -6 -6 -7 -7 -7 -7
10 9 9 10 10 9 9 9 9 9 9 8 8 8 7 6 6 5 4 4 3 2 2 1 1 -0 -1 -2 -3 -4 -5 -6 -6 -7 -7 -7 -7 -7 -7 -7 -7 -7 -7
9 9 9 9 9 8 8 8 8 8 8 7 7 7 6 5 5 4 3 3 2 2 1 0 -0 -1 -2 -3 -4 -5 -6 -7 -7 -8 -8 -7 -7 -8 -8 -7 -7 -7 -7
8 8 8 8 8 7 7 7 7 7 7 7 6 6 5 4 4 3 3 2 2 1 0 -0 -1 -2 -3 -5 -6 -6 -7 -8 -8 -8 -8 -8 -8 -8 -8 -8 -8 -8 -8
7 7 7 7 6 6 6 6 6 7 7 6 5 5 4 3 3 2 2 1 1 0 -0 -1 -2 -4 -5 -6 -7 -7 -7 -8 -8 -8 -9 -9 -8 -8 -8 -9 -9 -9 -8
6 5 5 5 5 5 5 5 6 6 6 5 4 4 3 3 2 1 1 1 0 -0 -1 -2 -4 -4 -6 -7 -7 -8 -8 -8 -9 -9 -9 -9 -9 -9 -9 -9 -9 -9 -9
4 4 4 4 4 4 4 5 6 5 5 4 3 3 2 2 1 1 0 -0 -1 -1 -2 -4 -5 -6 -7 -7 -8 -8 -8 -8 -9 -9 -9 -9 -9 -9 -9 -9 -9 -9 -9
2 2 3 3 3 4 4 5 5 4 3 3 2 2 1 1 0 -0 -1 -1 -2 -2 -4 -5 -6 -7 -7 -8 -8 -8 -8 -8 -8 -9 -9 -9 -9 -9 -9 -9 -9 -9 -9
1 2 2 3 4 4 4 4 3 3 2 2 1 1 0 -0 -0 -1 -2 -2 -3 -4 -5 -6 -7 -8 -8 -8 -8 -9 -9 -8 -8 -9 -9 -9 -8 -8 -9 -9 -9 -10 -10
2 3 3 3 4 4 3 3 2 2 2 1 0 -0 -1 -1 -2 -2 -3 -3 -4 -5 -5 -6 -7 -8 -8 -9 -9 -9 -9 -9 -9 -9 -8 -7 -7 -7 -8 -9 -9 -10 -10
3 3 3 3 3 3 3 2 2 1 0 0 -0 -1 -1 -2 -3 -4 -4 -5 -7 -7 -7 -7 -7 -8 -9 -9 -9 -9 -9 -9 -9 -9 -8 -7 -7 -7 -7 -8 -8 -10 -10
3 3 3 2 2 2 2 1 0 0 -0 -1 -1 -2 -3 -4 -4 -5 -6 -7 -8 -8 -8 -8 -8 -9 -9 -9 -9 -9 -9 -9 -9 -9 -8 -8 -7 -7 -7 -8 -8 -8 -9
3 3 2 2 1 1 0 0 -0 -1 -1 -2 -2 -3 -3 -4 -5 -6 -7 -7 -8 -9 -9 -9 -9 -9 -9 -9 -9 -9 -9 -9 -9 -9 -9 -8 -8 -8 -8 -8 -7 -8 -8
2 2 1 1 0 -0 -0 -1 -1 -1 -2 -3 -3 -3 -4 -5 -6 -7 -7 -7 -8 -8 -8 -9 -9 -9 -9 -9 -9 -9 -9 -9 -9 -9 -9 -8 -8 -8 -8 -8 -8 -8 -8
1 1 0 -0 -0 -1 -1 -2 -2 -2 -3 -3 -4 -4 -5 -6 -6 -8 -8 -9 -9 -9 -10 -9 -9 -9 -9 -9 -9 -9 -9 -9 -9 -9 -8 -8 -8 -8 -8 -8 -8 -9 -9
1 0 -0 -1 -1 -1 -2 -2 -3 -3 -4 -4 -5 -6 -6 -7 -8 -8 -8 -9 -9 -10 -10 -10 -10 -10 -10 -10 -9 -9 -9 -9 -9 -8 -8 -8 -8 -8 -8 -8 -8 -9 -9
-0 -1 -1 -1 -1 -2 -2 -3 -3 -4 -5 -5 -6 -7 -8 -8 -9 -9 -10 -10 -10 -10 -10 -10 -10 -10 -10 -10 -10 -9 -9 -9 -9 -8 -8 -8 -8 -8 -8 -8 -8 -8 -9
-1 -1 -1 -2 -2 -3 -3 -4 -4 -5 -5 -6 -7 -8 -9 -9 -9 -10 -10 -10 -10 -9 -10 -10 -10 -10 -10 -10 -10 -9 -9 -8 -8 -8 -8 -8 -8 -8 -8 -8 -8 -8 -9
-1 -2 -2 -3 -3 -4 -4 -4 -5 -6 -7 -7 -8 -8 -9 -9 -9 -10 -10 -10 -10 -10 -10 -10 -10 -10 -10 -10 -9 -9 -9 -8 -8 -8 -8 -8 -8 -8 -8 -8 -8 -8 -8
-2 -2 -3 -3 -4 -4 -5 -5 -6 -7 -7 -8 -9 -9 -10 -10 -10 -10 -10 -10 -10 -10 -10 -10 -10 -10 -10 -9 -9 -9 -8 -8 -8 -8 -8 -8 -8 -8 -8 -8 -8 -8 -8
-3 -3 -4 -4 -5 -5 -6 -6 -7 -8 -8 -9 -9 -10 -11 -11 -10 -10 -10 -10 -11 -11 -10 -10 -10 -9 -9 -9 -9 -8 -8 -8 -8 -8 -8 -8 -8 -8 -8 -8 -8 -8 -8
-3 -4 -4 -5 -5 -6 -7 -7 -8 -9 -9 -10 -10 -10 -10 -11 -11 -11 -11 -11 -11 -11 -10 -10 -10 -9 -9 -9 -8 -8 -8 -8 -8 -8 -8 -8 -8 -8 -8 -8 -8 -8 -8
-4 -4 -5 -5 -6 -7 -7 -8 -9 -9 -10 -10 -10 -10 -11 -11 -11 -11 -11 -11 -10 -10 -10 -10 -9 -9 -9 -8 -8 -8 -8 -8 -8 -8 -8 -8 -8 -8 -8 -8 -8 -8 -8
-4 -5 -5 -6 -7 -8 -8 -9 -9 -10 -10 -11 -11 -11 -11 -11 -11 -11 -11 -10 -10 -10 -10 -9 -9 -9 -8 -8 -8 -8 -8 -8 -8 -7 -8 -7 -7 -8 -8 -8 -8 -7 -7
-5 -5 -6 -7 -8 -8 -9 -9 -10 -10 -11 -11 -11 -11 -11 -11 -11 -11 -10 -10 -10 -10 -9 -9 -9 -8 -8 -8 -8 -7 -7 -7 -7 -7 -7 -7 -7 -7 -7 -7 -7 -7 -7
-6 -6 -7 -8 -8 -9 -10 -10 -10 -11 -11 -11 -11 -11 -11 -11 -11 -10 -10 -10 -10 -9 -9 -9 -8 -8 -8 -8 -7 -7 -7 -7 -7 -7 -7 -6 -6 -6 -7 -7 -7 -7 -7
Wind_Speed
15 14 15 14 16 16 14 15 16 15 16 14 12 11 9 8 7 6 4 4 1 1 1 2 2 2 2 3 3 4 5 6 12 10 6 7 9 10 13 18 21 20 22
16 15 14 14 16 15 15 15 16 16 14 13 11 10 9 8 6 5 3 3 1 2 2 3 3 3 3 4 4 5 5 6 10 15 8 7 10 10 11 12 15 20 19
16 16 15 15 15 16 16 16 15 15 14 12 10 10 9 7 6 5 3 2 2 3 3 3 4 3 4 4 5 5 6 8 7 11 12 8 9 11 12 13 14 10 18
15 15 15 15 15 15 15 15 15 15 13 11 11 10 9 7 5 4 3 3 4 4 4 3 4 4 5 5 6 6 7 7 8 9 12 11 11 10 10 10 12 8 11
14 14 15 15 15 15 15 15 15 14 13 12 11 9 7 5 5 5 5 5 5 6 5 5 4 7 10 9 8 6 7 6 7 10 12 13 12 10 10 9 14 12 12
14 15 16 17 16 15 14 14 15 14 12 11 10 8 6 5 6 4 4 4 5 6 6 5 5 7 11 14 16 16 15 12 10 11 13 14 14 12 10 11 14 16 16
14 16 17 18 17 15 15 14 14 12 11 10 8 7 6 7 5 3 5 4 5 7 7 6 6 7 11 5 11 15 15 20 21 16 15 14 14 12 11 14 15 17 18
15 16 17 17 16 15 13 13 12 10 9 8 7 6 5 6 5 2 6 6 6 7 7 6 6 6 8 10 7 7 8 12 17 14 11 12 13 12 14 17 17 15 15
16 16 15 15 15 14 13 12 10 9 8 7 6 5 3 4 4 3 6 4 5 7 6 7 8 7 14 18 10 9 11 11 18 22 23 23 28 28 22 13 10 12 17
15 15 13 13 13 13 12 10 8 7 7 6 4 3 2 1 1 3 6 2 5 5 6 7 12 14 17 19 12 11 13 12 12 13 15 19 16 17 22 12 9 12 15
15 14 13 12 12 12 10 8 8 6 5 4 3 1 1 2 0 4 7 3 4 5 5 5 7 17 20 22 20 11 15 16 10 10 11 11 10 9 9 8 8 11 14
14 14 13 11 10 10 9 8 6 5 4 2 1 1 1 1 1 5 8 9 10 5 6 5 8 20 22 23 17 16 21 18 8 9 10 11 11 11 11 11 12 12 13
14 14 12 11 9 8 8 6 5 4 3 2 2 2 2 2 4 8 10 13 15 8 7 15 18 22 21 14 15 19 15 8 8 10 11 11 9 10 11 11 12 12 14
14 12 10 9 8 7 6 5 4 4 3 3 3 3 3 4 4 3 4 7 11 9 8 13 19 19 15 13 13 11 7 8 10 10 11 12 12 10 11 11 12 12 12
12 10 8 7 7 6 5 4 4 4 4 2 2 3 4 4 7 13 10 6 6 8 11 6 6 6 5 6 7 6 7 9 10 10 12 13 13 13 13 11 11 12 13
10 8 6 5 5 4 3 2 1 1 1 2 3 4 4 8 13 15 16 16 17 18 12 6 6 6 7 9 10 11 10 10 10 11 11 12 12 13 14 12 11 12 13
9 7 5 5 4 4 4 4 3 3 3 5 5 7 8 11 13 15 16 16 16 15 7 5 6 6 7 8 8 10 11 11 10 11 11 12 12 12 13 13 13 13 13
8 8 6 5 4 4 3 3 3 3 3 4 5 9 10 12 14 16 15 12 8 8 6 6 6 7 8 8 9 10 11 11 11 11 12 12 12 12 13 13 13 14 14
7 5 5 4 4 3 3 3 2 3 3 4 4 6 10 12 14 14 13 5 7 7 7 6 6 7 8 9 10 10 11 12 12 12 12 13 12 13 13 13 14 19 17
6 8 6 4 3 3 3 3 3 3 4 4 4 4 5 7 6 8 7 6 6 7 7 7 8 8 9 9 10 11 11 12 13 12 12 13 12 12 14 16 15 15 15
5 5 5 4 3 3 3 3 3 3 4 4 4 7 12 6 6 7 7 7 6 7 7 8 8 9 9 9 10 11 12 12 12 12 13 13 13 14 14 14 15 14 14
4 4 3 2 2 2 3 3 3 4 4 5 5 7 13 7 6 7 7 7 7 7 7 8 9 9 9 10 10 11 12 13 13 13 13 14 14 14 14 13 13 12 12
4 3 2 2 2 4 4 3 4 4 4 5 6 7 7 7 7 7 7 8 8 8 7 8 10 10 9 10 10 11 12 13 13 14 15 15 14 13 12 11 13 13 13
3 2 2 2 2 3 3 4 4 4 5 5 5 6 6 6 7 8 8 8 8 8 9 9 10 13 16 14 14 15 15 16 17 14 16 13 12 11 11 11 11 12 12
3 2 2 3 3 3 4 4 4 4 5 6 6 7 7 7 8 8 8 8 9 10 11 12 11 12 15 18 19 18 22 26 25 17 10 8 10 11 11 11 10 11 11
2 2 2 3 3 3 4 4 4 5 5 6 6 6 7 7 8 8 8 8 9 11 12 11 14 17 20 19 20 23 26 26 24 21 10 7 9 9 10 9 11 10 11
Wind_Direction
151 143 144 147 148 150 150 147 142 141 139 134 133 130 127 128 128 127 131 129 143 288 296 257 270 285 291 293 294 287 277 276 286 290 283 292 297 297 299 296 296 293 292
136 137 140 141 143 142 139 137 136 135 131 129 129 125 124 121 118 120 123 128 209 268 286 289 284 290 293 288 280 277 280 281 287 296 299 298 296 295 295 293 300 298 294
131 134 137 138 136 134 134 132 132 129 125 121 117 114 110 105 98 85 69 27 336 302 284 273 272 281 285 282 285 287 287 292 289 299 303 300 297 296 296 295 292 291 295
128 134 136 134 130 130 129 128 127 123 119 112 106 104 104 103 96 72 34 355 328 316 306 290 274 265 266 270 281 274 279 284 290 294 298 298 295 291 292 298 300 288 295
129 133 130 124 122 122 122 122 120 115 111 107 105 103 103 111 89 57 20 353 341 325 312 298 288 290 291 290 288 278 288 289 294 296 297 299 299 301 300 298 302 303 294
129 128 123 120 119 118 120 119 113 110 108 108 110 112 115 108 90 49 358 338 328 316 306 301 300 295 296 305 308 308 306 306 304 297 298 298 298 296 295 298 301 302 299
123 121 120 120 120 120 120 116 112 111 110 111 116 125 124 121 107 35 343 337 312 296 290 289 295 299 309 302 298 303 303 303 301 297 295 294 294 294 294 295 292 291 293
117 117 118 121 121 119 118 113 112 115 117 118 117 109 109 139 127 37 347 346 312 296 292 292 295 295 299 302 292 300 288 293 293 294 286 287 292 291 287 291 292 292 289
114 115 119 122 121 119 116 113 114 114 110 112 113 112 105 130 131 27 354 332 307 309 319 328 322 303 305 311 315 302 295 292 300 300 299 299 300 301 303 302 297 298 297
118 118 119 119 119 116 114 110 107 106 107 109 109 112 109 115 102 356 342 324 316 317 316 312 313 311 312 316 312 302 302 299 296 298 300 300 296 296 302 298 295 299 298
120 118 115 112 111 109 104 100 100 103 109 114 130 185 200 179 331 322 328 324 293 296 298 298 301 313 313 313 311 302 300 305 303 301 300 298 297 294 292 286 285 288 291
113 109 106 102 103 101 98 94 92 95 100 105 79 0 18 56 347 316 322 324 323 313 306 296 301 313 314 313 313 309 310 315 308 303 301 300 299 299 297 294 288 281 273
108 104 100 95 92 94 96 97 93 81 69 51 32 17 3 13 343 338 336 330 325 322 308 313 315 316 315 312 312 316 321 316 306 304 302 299 295 292 296 296 293 287 281
105 101 98 95 90 83 81 76 74 70 55 39 25 14 1 351 344 350 326 313 315 313 304 308 315 314 315 320 321 319 312 304 309 304 303 301 302 300 300 300 302 305 301
99 96 93 91 93 86 80 74 68 77 89 59 22 7 348 326 316 321 323 312 308 304 312 305 303 307 318 319 312 308 309 312 311 306 303 303 303 303 302 302 300 301 297
101 93 90 89 87 89 88 77 132 135 60 336 309 309 310 311 318 324 322 319 319 319 320 309 308 313 315 317 317 316 313 310 308 306 302 299 300 301 302 302 300 299 298
97 96 92 89 85 74 55 39 14 338 290 292 299 308 312 319 325 324 321 320 323 328 328 314 309 309 308 309 308 308 306 304 304 302 299 299 299 299 299 301 302 302 299
86 86 89 83 74 62 47 29 11 355 342 332 331 328 328 332 331 328 327 331 327 327 316 309 306 307 307 306 306 305 304 305 304 302 300 299 299 299 300 300 301 300 301
84 78 75 74 63 48 28 3 348 343 332 322 324 334 340 337 332 331 337 333 317 316 315 311 306 304 303 303 302 301 301 301 301 302 301 300 300 300 300 299 300 302 303
77 73 65 54 48 33 14 356 349 344 335 333 333 327 326 328 325 326 329 320 317 315 314 310 306 302 301 301 301 301 302 301 302 301 300 299 300 299 299 300 301 301 301
93 76 54 43 39 27 1 349 347 342 335 331 324 323 331 335 326 320 321 322 320 317 311 308 305 302 300 299 299 299 299 299 299 299 299 299 300 301 300 298 298 298 301
86 83 64 44 17 9 353 339 332 333 331 326 320 323 331 332 318 315 318 318 315 310 305 304 301 298 297 297 298 299 298 298 298 298 298 299 299 299 298 299 303 311 318
79 72 43 28 16 347 346 341 341 330 321 319 321 323 323 321 318 317 316 316 314 308 304 302 301 300 299 298 295 292 291 292 293 293 296 298 301 304 308 315 319 323 325
70 53 28 9 1 345 333 327 323 320 319 315 314 314 315 315 314 313 312 307 307 304 304 305 301 299 300 303 302 298 293 291 291 291 292 300 310 317 320 320 321 322 324
59 35 13 357 343 331 322 318 315 314 317 317 316 315 313 310 308 305 304 305 306 307 307 308 305 304 303 304 304 303 302 306 310 313 311 315 315 315 316 318 321 324 326
46 12 351 337 326 319 315 313 312 314 312 308 304 301 301 301 302 302 304 306 308 310 310 309 306 307 307 307 305 307 311 316 321 329 333 317 318 318 321 321 323 328 330
Height
1411 1416 1421 1426 1431 1436 1441 1446 1451 1457 1463 1469 1474 1478 1481 1483 1485 1486 1487 1486 1486 1484 1483 1482 1480 1479 1477 1475 1472 1470 1467 1463 1456 1449 1449 1446 1443 1439 1434 1431 1426 1422 1417
1406 1413 1419 1424 1429 1434 1439 1444 1450 1455 1462 1468 1473 1476 1478 1480 1482 1483 1483 1482 1481 1480 1479 1477 1476 1474 1471 1469 1466 1463 1461 1458 1453 1445 1441 1439 1435 1431 1426 1422 1418 1414 1410
1404 1410 1416 1422 1426 1431 1437 1442 1448 1454 1461 1466 1470 1473 1476 1478 1479 1479 1479 1478 1477 1476 1474 1472 1470 1468 1466 1463 1460 1458 1455 1452 1448 1442 1435 1431 1427 1424 1419 1415 1411 1406 1402
1403 1409 1414 1420 1425 1430 1436 1442 1447 1454 1460 1464 1468 1471 1473 1475 1476 1476 1475 1474 1473 1471 1469 1467 1465 1463 1460 1458 1455 1452 1449 1445 1441 1436 1429 1424 1420 1417 1413 1408 1401 1397 1392
1404 1409 1413 1418 1424 1430 1435 1441 1447 1453 1459 1463 1466 1469 1470 1472 1472 1472 1471 1470 1468 1466 1465 1462 1460 1458 1455 1453 1451 1447 1444 1439 1435 1430 1424 1419 1414 1411 1407 1402 1395 1388 1382
1405 1409 1412 1418 1424 1430 1435 1442 1447 1453 1458 1461 1464 1466 1467 1468 1469 1468 1467 1465 1463 1461 1459 1457 1455 1452 1450 1448 1445 1442 1439 1435 1429 1425 1419 1415 1409 1405 1400 1396 1390 1382 1372
1405 1409 1413 1418 1424 1430 1437 1443 1448 1453 1457 1460 1462 1463 1464 1465 1465 1464 1462 1461 1459 1456 1454 1451 1449 1447 1444 1441 1438 1435 1432 1429 1426 1421 1414 1409 1404 1399 1395 1389 1383 1377 1368
1406 1410 1414 1420 1426 1433 1440 1445 1449 1452 1455 1458 1460 1461 1461 1462 1461 1460 1458 1456 1454 1451 1449 1447 1444 1441 1438 1435 1432 1428 1425 1422 1418 1414 1409 1404 1399 1394 1389 1384 1378 1370 1362
1408 1412 1418 1425 1431 1437 1441 1445 1449 1452 1455 1457 1458 1458 1458 1458 1457 1455 1453 1451 1448 1446 1444 1442 1439 1436 1433 1431 1427 1422 1417 1414 1411 1407 1403 1398 1393 1388 1383 1377 1371 1364 1354
1413 1418 1424 1429 1435 1439 1443 1446 1449 1452 1454 1455 1456 1456 1456 1454 1453 1451 1449 1446 1443 1441 1438 1436 1433 1431 1428 1425 1422 1417 1411 1407 1403 1398 1394 1390 1385 1380 1376 1372 1366 1359 1351
1418 1423 1428 1434 1438 1441 1444 1447 1449 1451 1452 1453 1453 1453 1452 1451 1449 1447 1445 1441 1438 1435 1433 1430 1428 1425 1422 1419 1416 1412 1406 1402 1397 1392 1387 1382 1377 1373 1368 1364 1359 1353 1346
1424 1429 1433 1437 1440 1443 1445 1447 1449 1450 1451 1451 1451 1450 1449 1448 1446 1443 1441 1438 1436 1432 1429 1425 1422 1420 1417 1414 1410 1406 1402 1398 1392 1386 1381 1376 1371 1365 1360 1356 1351 1345 1339
1429 1433 1436 1439 1442 1444 1446 1447 1448 1449 1449 1449 1448 1448 1446 1445 1442 1440 1437 1434 1431 1428 1424 1421 1418 1415 1411 1408 1405 1401 1397 1392 1387 1381 1376 1370 1365 1359 1353 1348 1342 1336 1330
1432 1435 1438 1441 1443 1445 1446 1447 1448 1448 1448 1447 1446 1445 1443 1441 1438 1436 1433 1429 1426 1423 1420 1416 1414 1410 1407 1404 1400 1396 1392 1387 1382 1377 1371 1365 1359 1353 1347 1341 1334 1327 1320
1435 1438 1440 1443 1444 1446 1447 1447 1447 1446 1446 1445 1443 1442 1439 1437 1434 1432 1429 1425 1422 1419 1416 1412 1409 1406 1402 1398 1394 1391 1387 1382 1377 1372 1367 1360 1354 1348 1342 1336 1329 1322 1315
1438 1440 1442 1444 1445 1446 1446 1446 1445 1445 1444 1442 1440 1438 1435 1433 1430 1427 1425 1421 1418 1416 1412 1408 1405 1402 1398 1394 1390 1385 1382 1377 1373 1367 1362 1356 1350 1343 1337 1331 1325 1318 1311
1440 1442 1443 1444 1445 1445 1445 1445 1444 1443 1442 1439 1437 1435 1432 1429 1427 1423 1421 1418 1415 1412 1408 1405 1401 1398 1394 1390 1386 1382 1377 1373 1368 1363 1357 1352 1346 1339 1332 1326 1319 1313 1306
1442 1443 1444 1445 1445 1444 1444 1443 1442 1440 1438 1436 1434 1432 1429 1427 1423 1420 1417 1414 1411 1408 1404 1401 1398 1394 1391 1387 1382 1378 1373 1368 1364 1358 1353 1347 1341 1335 1328 1321 1315 1308 1301
1443 1444 1444 1444 1444 1443 1442 1441 1439 1437 1435 1433 1431 1429 1426 1423 1420 1417 1414 1410 1407 1404 1401 1397 1394 1391 1387 1383 1379 1375 1370 1365 1360 1354 1349 1343 1337 1331 1324 1317 1311 1304 1298
1444 1444 1444 1444 1443 1442 1440 1439 1437 1435 1432 1430 1427 1425 1422 1419 1416 1413 1410 1407 1404 1400 1397 1394 1391 1388 1384 1380 1376 1371 1366 1361 1356 1351 1345 1339 1333 1327 1320 1313 1307 1300 1294
1444 1444 1443 1442 1441 1440 1438 1436 1434 1432 1429 1427 1425 1422 1420 1416 1413 1410 1407 1404 1401 1398 1394 1391 1388 1385 1381 1377 1373 1368 1363 1358 1353 1347 1341 1335 1329 1322 1316 1310 1304 1298 1292
1443 1443 1442 1441 1439 1437 1435 1433 1431 1429 1426 1424 1421 1419 1416 1414 1410 1407 1404 1401 1398 1395 1392 1388 1385 1382 1378 1374 1369 1364 1360 1355 1350 1344 1338 1331 1325 1319 1313 1308 1302 1297 1291
1442 1441 1440 1438 1437 1435 1433 1430 1428 1426 1424 1421 1418 1416 1413 1411 1408 1405 1402 1399 1396 1393 1390 1386 1383 1379 1376 1371 1367 1362 1357 1352 1347 1341 1335 1328 1323 1317 1312 1307 1302 1295 1289
1441 1439 1438 1436 1434 1432 1430 1428 1425 1423 1421 1418 1416 1413 1411 1408 1405 1403 1400 1397 1394 1391 1388 1384 1380 1377 1373 1369 1364 1360 1356 1351 1345 1340 1335 1329 1324 1318 1312 1306 1301 1295 1289
1439 1437 1435 1433 1431 1429 1427 1425 1423 1420 1418 1415 1413 1410 1408 1405 1403 1400 1397 1395 1392 1388 1385 1382 1378 1374 1370 1366 1362 1358 1354 1349 1345 1341 1335 1330 1324 1318 1312 1306 1301 1295 1289
1437 1435 1433 1431 1429 1426 1424 1422 1420 1417 1415 1413 1410 1408 1405 1403 1400 1398 1395 1392 1389 1386 1383 1379 1376 1372 1368 1364 1360 1356 1352 1348 1344 1339 1334 1329 1324 1318 1312 1307 1301 1296 1290